INMARSAT 4-F1

Last updated on Tue Sep 22 2026 00:03:10 GMT+0000 (Coordinated Universal Time)

1 28628U 05009A 26264.53975690 .00000033 00000+0 00000+0 0 9998 2 28628 5.3020 42.8120 0002719 142.3459 187.7088 1.00272623 78638
UTC large
Height (km)
Speed (km/s)
/
Latitude / Longitude
Inclination (degrees)
Orbital Period (minutes)
Azimuth
Elevation
Range (km)
Doppler Factor

Next 0 passes for location: London (51.5072 / 0.1276)

No passes found over London.
INMARSAT 4-F1